Regional Weather Roundup
Issued by NWS Charleston, SC

Current Version | Previous Version | Text Only | Print | Product List | Glossary Off
Versions: 1 2 3 4 5 6 7 8 9 10 11 12 13 14 15 16 17 18 19 20 21 22 23 24 25 26 27 28 29 30 31 32 33 34 35 36 37 38 39 40 41 42 43 44 45 46 47 48 49 50

000
ASUS42 KCHS 201312
RWRCHS

Regional Weather Roundup
National Weather Service Charleston SC
900 AM EDT FRI APR 20 2018

NOTE: "fair" indicates few or no clouds below 12,000 feet with no
significant weather and/or obstructions to visibility.

Not all stations are quality controlled. Use data with caution,
especially dewpoint observations.

SCZ027-030-031-034>040-042>050-201400-
...Southeast South Carolina...

CITY           SKY/WX    TMP DP  RH WIND       PRES   REMARKS
N Charleston   FAIR      53  32  44 N15G25    30.31R
Waterfront Prk   N/A     51  38  60 N20       30.15R
Mount Pleasant FAIR      52  34  50 N8G16     30.31R
Johns Island   FAIR      52  34  50 N16       30.31R
Pinopolis        N/A     48  36  61 NE17      30.25R
Moncks Corner  FAIR      48  28  46 NE10G17   30.34R
Summerville    FAIR      50  32  50 N13G22    30.34R
Beaufort MCAS  FAIR      53  35  50 NE16      30.32R
Beaufort Arpt  FAIR      52  34  50 NE24G30   30.31R
Hilton Head Is PTSUNNY   52  32  46 NE16G24   30.31R
Walterboro     FAIR      50  30  46 NE13G26   30.34R
Allendale      FAIR      50  28  43 NE8G15    30.33R

...Southern Midlands and Pee Dee...

CITY           SKY/WX    TMP DP  RH WIND       PRES   REMARKS
Georgetown     FAIR      50  30  46 NE15      30.34R
Kingstree      FAIR      48  30  49 N7        30.35S
Orangeburg     FAIR      50  29  44 NE13G20   30.36R
Barnwell       FAIR      50  28  43 NE13G21   30.35R
Aiken          FAIR      48  30  49 NE16      30.38R
Manning        FAIR      45  28  53 NE8       30.35R
Columbia       FAIR      52  31  44 NE10      30.37R
Sumter         FAIR      50  30  46 NE12      30.34R
Florence       FAIR      50  30  46 NE12      30.36R
Myrtle Beach   FAIR      51  31  46 NE15      30.35R
N Myrtle Beach FAIR      52  31  44 NE10      30.33R

$$

GAZ063-065-086>088-099>101-113>116-118-119-134>141-150-201400-
...Southeast Georgia...

CITY           SKY/WX    TMP DP  RH WIND       PRES   REMARKS
Savannah Arpt  PTSUNNY   53  33  46 NE15G23   30.30R
Hunter AAF     FAIR      54  32  43 NE13G20   30.27R
Fort Stewart   FAIR      53  32  44 NE18G24   30.27R
Statesboro     FAIR      51  27  39 NE9G17    30.32R
Sylvania       FAIR      52  34  50 NE16      30.33R
Claxton        FAIR      53  32  45 N18       30.31R

...CSRA, Central and far Southeast Georgia...

CITY           SKY/WX    TMP DP  RH WIND       PRES   REMARKS
Thomson        FAIR      49  30  47 SE12G21   30.41R
Augusta-Bush   FAIR      52  30  43 NE15      30.36R
Augusta-Daniel FAIR      52  29  41 NE14      30.36R
Swainsboro     FAIR      50  32  50 E14G25    30.33R
Vidalia        FAIR      52  32  46 NE18G25   30.30R
Eastman        FAIR      53  15  22 E17G25    30.33R
Hazlehurst     FAIR      55  30  38 NE13G18   30.27R
Alma           CLOUDY    54  33  45 NE6G21    30.26R
Waycross       CLOUDY    56  33  41 NE9       30.25R
Jesup          CLOUDY    55  34  44 E12G21    30.27R
Baxley         PTSUNNY   52  32  46 E15G25    30.27R
Brunswick      PTSUNNY   57  43  58 NE17G28   30.26R
Saint Simons   FAIR      60  47  61 NE21G32   30.24R

$$

SCZ027-028-034-036>038-045-046-048>050-GAZ119-141-201400-
...Lake and Supplemental Coastal Observations...

STATION/POSITION TIME  TEMP    WIND        PRES    WAVE   SWELL
                       AIR SEA DIR/SP/G            HT/PER HT/PER/DIR
                 (UTC) (F)     (DEG/KT/KT) (MB)    (FT/S) (FT/S/D)
Winyah Bay       1145   47      30/ 11     1026.0
Lake Murray      1220   47      30/  5/  8 1027.1
ACE Basin NERRS  1145   49     350/  5       N/A
Fort Pulaski     1242   52 65   50/ 15/ 20 1026.0R
Sapelo Island    1200   57      40/ 15     1024.0

$$

ANZ835-935-AMZ111-154-330-350-352-354-370-450-454-472-201400-
...C-MAN and Buoy Observations...

STATION/POSITION TIME  TEMP    WIND        PRES    WAVE   SWELL
                       AIR SEA DIR/SP/G            HT/PER HT/PER/DIR
                 (UTC) (F)     (DEG/KT/KT) (MB)    (FT/S) (FT/S/D)
Buoy 41004       1250   58      40/ 23/ 29 1024.5R   8/ 7
Buoy 41008       1250   58 65   50/ 25/ 31 1023.5R   8/ 7   2/ 80/15
Folly Beach CMAN 1200   50      20/ 21/ 24 1025.9R
Capers Nearshore 1208   52 63   30/ 21/ 27 1025.5R
Fripp Nearshore  1208   53 63   40/ 21/ 27 1024.8R


STATION/POSITION TIME  TEMP    WIND        PRES    WAVE   SWELL
                       AIR SEA DIR/SP/G            HT/PER HT/PER/DIR
                 (UTC) (F)     (DEG/KT/KT) (MB)    (FT/S) (FT/S/D)
5E St. Marys GA  1300      66                N/A     8/ 7
Frying Pan Buoy  1250   55 65   50/ 23/ 27 1025.8R   7/ 7   2/340/15
Buoy 41025       1250   52 71  360/ 21/ 27 1025.5R   6/ 9   3/ 60/ 9
Cape Lookout NC  1200           10/ 13/ 15 1026.1R
Buoy 41002       1250   67 71   40/ 19/ 25 1020.6R   9/ 7   2/ 90/15
Buoy 41010       1250   74 74  220/ 10/ 14 1019.5R   3/16   2/210/16
St Augustine FL  1300   67 67   20/ 25/ 28 1021.3R


$$



USA.gov is the U.S. government's official web portal to all federal, state and local government web resources and services.